{"data":{"norad_id":56362,"intl_designator":"2023-058AX","name":"STARLINK-5972","alt_names":[],"object_type":"PAYLOAD","status":"ACTIVE","operator":null,"country":"US","launch_date":"2023-04-27","launch_site_code":"AFWTR","launch_vehicle":null,"mission":null,"orbit_class":"UNKNOWN","rcs_meters":null,"size_class":null,"mass_kg":null,"dimensions":null,"purposes":["comms"],"wikipedia_slug":null,"has_3d_model":false,"image_url":null,"decayed_at":null,"tle_current":{"epoch":"2026-05-24T23:07:38.546112Z","epoch_age_seconds":75502,"freshness":"FRESH","line1":"1 56362U 23058AX  26144.96364058  .00000186  00000+0  16978-4 0  9997","line2":"2 56362  97.4489 146.0358 0002054  76.4274 283.7181 15.05654990169676","mean_motion":15.0565499,"eccentricity":0.0002054,"inclination_deg":97.4489,"raan_deg":146.0358,"arg_perigee_deg":76.4274,"mean_anomaly_deg":283.7181,"bstar":1.6978e-5,"rev_number":16967,"period_min":95.639439948989,"perigee_km":548.07291196417,"apogee_km":550.91878353803,"semimajor_km":6927.6328477511,"source":"CELESTRAK","updated_at":"2026-05-25T13:38:18.009895Z"}}}